FENGYUN 1C DEB

Satellite information

Favourite Embed

Satellite Type and Status

DEBRISIN ORBIT

Key statistics

Satellite FENGYUN 1C DEB at a glance.

Uptime

9715

Days in orbit

Revolutions

≈ 13.2

Per day

Orbit

SSO

Sun Synchronous Orbit

Inclination

98.9

Latest

Satellite identification and parameters

Extended collection of information and parameters for FENGYUN 1C DEB.

Object identification

Identified? True

Debris? True

Object name: FENGYUN 1C DEB

International designator: 1999-025AZS

Object number (NORAD): 30928

Object ID (CCSDS): 30928

Country: PEOPLES REPUBLIC OF CHINA (PRC)

Current information (Y/N): Y

RCS size: SMALL

Orbital parameters

Period: 108.906 minutes

Inclination: 98.8831 deg

SMA: 7554.313 km

Apoapsis: 1516.298 km

Periapsis: 836.059 km

RAAN: 76.4674 deg

Eccentricy: 0.04502326

Argument of periapsis: 30.6162 deg

Mean anomaly: 25.4408 deg

Mean motion: 13.22239933 rev/day

Mean motion (dot): 0.00000826 rev/day2

B* drag term: 0.0012096582 1/REarth

Two-line elements (TLE)

Creation date: Dec. 13, 2025, 5:47 p.m.

Reference frame: TEME

Reference center: EARTH

Epoch: Dec. 13, 2025, 5:53 a.m. UTC

TLE line 0: 0 FENGYUN 1C DEB

TLE line 1: 1 30928U 99025AZS 25347.24574604 .00000826 00000-0 12097-2 0 9997

TLE line 2: 2 30928 98.8831 76.4674 0450233 30.6162 25.4408 13.22239933903552

Live tracking on map

Real-time ground track for satellite FENGYUN 1C DEB.

In-orbit conjunctions

A list of the most updated potential collisions computed for object FENGYUN 1C DEB.

Target Orbit TCA Probability of collision Miss distance Type
CZ-6A DEB SSO 2024-08-05 01:44:09 0.0004248659 78.0 (m) DEBRIS
DELTA 1 R/B SSO 2024-06-01 23:07:47 0.000161155 104.0 (m) ROCKET BODY
COSMOS 2322 LEO 2024-05-27 09:48:25 0.0001191964 150.0 (m) PAYLOAD

Associated space launch

Chinese polar orbiting meteorological satellite

FENGYUN 1C DEB was lifted into orbit during the mission ‘Long March 4B | Feng Yun 1C’, on board a Long March 4B space rocket.

The launch took place on May 10, 1999, 1:33 a.m. from Launch Complex 7.

For more information about the launch, click the button.

Launch to space Long March 4B | Feng Yun 1C
Long March 4B | Feng Yun 1C

Agency: N/A

Status: Launch Successful

Launch date: May 10, 1999, 1:33 a.m. UTC

Rocket: Long March 4B

Launch pad: Launch Complex 7

Location: Taiyuan Satellite Launch Center, People's Republic of China

...

Latest news about this satellite

There are no fresh news available about this satellite. Check back as we update our databases every day.


Newsletter sign-up

Weekly statistics, charts and insights to help you stay on top of the space industry.